Timeline UpdatesTrip UpdatesNews PostsPvt Posts♥♥Travel TipsAdmin PostsConv PostsFollowed PostsChat RequestsBlog PostsPNR Posts

Disclaimer
Search
 
 
Fri Nov 28, 2014 08:34:28 ISTHomeTrainsΣChainsAtlasPNRForumGalleryNewsFAQTripsMembersLoginFeedback
No Recent News for this Train
Other Trains in the News **new
Latest...
Cancelled from 31/12/14-15/2/15 #1263410
Sat Nov 01, 2014 (07:19PM)
⇐ Return Journey: Train# 15484

14083⇒15483/Sikkim Mahananda Express

Nov 28 departure has been Rescheduled to start 13h 10m late
New Time: 23:00
NO Time-Table Change.
Nov 01 (7:19PM)
Change Departure Station:
Change Arrival Station:
Post a Train Travel TipPost a Train Travel Tip **new
Post a Comment/Question/Picture/VideoPost a Comment/Question/Picture/Video
Pantry/Catering
✓ Pantry Car Avbl
✓ Catering Avbl
RSA - Rake Sharing
Rake/Coach Composition
LOCO-SLR-GS-GS-GS-AB-B1-PC-S11-S10-S9-S8-S7-S6-S5-S4-S3-S2-S1-GS-GS-GS-SLR
Loco
SGUJ WDP-4 (APDJ to PNBE), GZB/MGS WAP-4 (PNBE to DLI)
News    PNR    Forum    Time-Table    Availability    Fare Chart    Map    Arr/Dep History    Trips    Gallery    ΣChains    X/O    Timeline    
Travel Time: 10h 15m    16 halts    Distance: 435 km    Avg Speed: 42 km/hr
Type: Mail/Express
Zone: NFR/Northeast Frontier
Departs @ 12:25 (Avg 4h 52m late)
Platform# 5
SMTWTFS
Kanpur Central/CNB 
Arrives @ 22:40 (Avg 3h 8m late)
Platform# 11
SMTWTFS
Old Delhi Junction/DLI 

16 halts. 64 intermediate Stations between Kanpur Central and Old Delhi Junction

Show ALL intermediate Stations  

#TrkCodeStation NameX/OArrivesAvgDepartsAvgHaltPFDay#KmSpeedElevZoneAddress
1|--|APDJAlipur Duar Junction (3)  -09:50+3:4911-1217.17053mNFRDist - Alipurduar, West Bengal
2|--|HSAHasimara (3)X  10:20+3:4910:22+3:502m--1-1182.363123mNFRDist - Alipurduar, West Bengal
3|--|DLODalgaon (3)  10:46+3:5710:47+3:591m11-1157.038120mNFRDist : Alipurduar, West Bengal
4|--|BNVBinnaguri (3)  11:01+3:5111:02+3:421m--1-1148.165132mNFRDist : jalpaiguri, West Bengal
5|--|NMZNew Mal Junction (3)  11:43+3:5311:48+3:525m--1-1103.743161mNFRDist - Jalpaiguri, West Bengal
6|--|SGUJSiliguri Junction (6)X  12:55+3:4113:00+3:385m--1-1055.912120mNFRDist - Darjeeling, West Bengal
7|--|NJPNew Jalpaiguri Junction (8)X  13:35+3:2913:55+3:3120m31-1048.777114mNFRCity-Siliguri . Dist-Jalpaiguri, West Bengal
8%==%AUBAluabari Road (2)O  14:39+3:4714:41+3:372m21-991.9630mNFRDist - uttar Dinajpur, West Bengal
9%==%KNEKishanGanj (3)O  15:10+3:3715:15+3:365m21-961.37152mNFRKishanganj, Bihar
10%==%DLKDalkhola (3)X  15:39+3:4115:40+3:421m101-932.85844mNFRDalkola, West Bengal
11%==%BOEBarsoi Junction (3)X  16:10+3:4316:12+3:442m--1-903.85337mNFRdist- katihar, Bihar
12%==%AZRAzamnagar Road (3)X  16:27+3:4416:28+3:461m--1-890.43134mNFRAzamnagar, Bihar
13%--%LAVLabha (2)  17:10+3:3117:11+3:331m11-868.71529mNFRDist : Katihar, Bihar
14%--%KIRKatihar Junction (7)X  18:45+3:2619:00+3:2915m51-845.84635mNFRKatihar 854105, Bihar
15%-=%SMOSemapurX  19:15+3:1419:16+3:151m--1-834.26535mECRKatihar, Bihar
16%==%CRRKaragola Road  19:26+3:1719:27+3:201m--1-823.57836mECRLachhmipur, Bihar
17%=-%KUEKurselaX  19:40+3:2519:41+3:271m--1-806.54831mECRNH 31, Bihar
18%==%NNANaugachia (3)  20:04+3:2720:05+3:281m--1-788.06437mECRBhagalpur, Bihar
19%==%THBThana Bihpur Junction (3)  20:20+3:3020:21+3:321m--1-772.15139mECRThana Bihpur, Bihar
20%==%NNRNarayanpur (2)  20:30+3:3520:31+3:251m--1-764.55439mECRNarayanpur, Bihar
21%==%PSRPasraha (3)  20:44+3:2720:45+3:301m--1-752.85341mECRPasraha, Bihar
22%==%MSKMahes Khunt (2)X  20:59+3:3421:00+3:401m--1-740.55737mECRMaheshkhunt, Bihar
23%==%MNEMansi Junction (4)X  21:11+3:4321:12+3:461m--1-730.13343mECRMansi, Bihar
24%=-|KGGKhagaria Junction (3)X  21:28+3:5121:29+3:551m--1-721.36243mECRKhagaria, Bihar
25%==%SKJSahibpur Kamal Junction (2)  21:41+3:5721:42+3:591m--1-708.94241mECRShahpur Kamal, Bihar
26%==%LKNLakhminia (3)X  21:56+3:5721:57+3:581m--1-699.23645mECRBegusarai, Bihar
27%==%BGSBegusarai (3)  22:27+3:3022:28+3:321m--1-681.42246mECRBegusarai, Bihar
28%--/BJUBarauni Junction (9)X  23:05+3:1023:10+3:125m11-668.02849mECRBegusarai, Bihar
29/--/MKAMokama Junction (4)  23:54+4:1123:56+4:132m31-647.38848mECRPatna, Bihar
30/==/BKPBakhtiyarpur Junction (5)X  00:26+4:2500:28+4:272m--2-603.44851mECRPatna, Bihar
31/==/PNBEPatna Junction (10)X  01:25+3:5801:50+4:0225m42-558.03557mECRPatna 800001, Bihar
32/==/DNRDanapur (5)  02:06+4:2202:08+4:222m--2-548.79158mECRKhagaul, Bihar
33/==/ARAAra Junction (3)X  02:34+4:3302:36+4:332m--2-509.17163mECRDistt: Bhojpur Ph 06182-233411, Bihar
34/==/BXRBuxar (3)X  03:34+4:0603:36+4:062m22-440.64767mECRBuxar, Bihar
35/==/MGSMughal Sarai Junction (8)  05:35+3:4405:45+3:4910m42-346.74583mECRDistt: Chandauli Pin 232101, Uttar Pradesh
36/==/MZPMirzapur (3)XO  07:09+4:2107:10+4:251m--2-283.54088mNCRMirzapur, Uttar Pradesh
37/==/BDLVindhyachal (3)  07:21+3:4607:22+3:501m--2-276.27788mNCRMirzapur, Uttar Pradesh
38/==/NYNNaini Junction (4)  08:20+5:1508:22+5:152m22-201.42498mNCRAllahabad, Uttar Pradesh
39/==/ALDAllahabad Junction (10)XOO  08:40+4:5608:55+5:0315m32-194.364100mNCRAllahabad 211003, Uttar Pradesh
40/==/FTPFatehpur (3)  10:44+4:4710:45+4:491m--2-77.652120mNCRFatehpur, Uttar Pradesh
41/==/CNBKanpur Central (10)»X  12:15+4:5012:25+4:5210m520.029128mNCRKANPUR-208 001, Uttar Pradesh
42/==/PNKPanki (3)XO  12:49+4:0712:50+4:081m--211.537129mNCRKANPUR-208 020, Uttar Pradesh
43/==/RURARura (4)  13:43+3:3913:44+3:421m--244.357137mNCRJhinjhak, Uttar Pradesh
44/==/JJKJhinjhak (3)  14:04+3:3614:05+3:391m3263.470140mNCRAuraiya, Uttar Pradesh
45/==/PHDPhaphund (4)  14:22+4:2314:23+4:281m--283.263146mNCRdist. Auraiya, Uttar Pradesh
46/==/ULDAchalda (3)  14:39+3:3814:40+3:441m--2100.065147mNCRDist. Auraiya(05688-1072), Uttar Pradesh
47/==/BNTBharthana (3)  14:58+3:1814:59+3:261m--2119.552147mNCRBharthana, Uttar Pradesh
48/==/ETWEtawah (5)  15:22+3:5915:23+4:011m22139.474154mNCRDistt. Etawah, Uttar Pradesh
49/==/SKBShikohabad Junction (4)  16:08+3:3116:09+3:331m32194.857166mNCRDistrict Firozabad, Uttar Pradesh
50/==/FZDFirozabad (4)XO  16:30+3:3216:31+3:371m32214.616164mNCRFirozabad, Uttar Pradesh
51/==/TDLTundla Junction (5)XO  17:35+4:0517:45+4:0510m22231.270167mNCRDistt.Firozabad, Uttar Pradesh
52/==/JLSJalesar Road (1)X  18:09+3:0218:10+3:031m12259.155172mNCRMDR 106W, Uttar Pradesh
53/==/HRSHathras Junction (3)X  18:32+3:0118:33+3:031m--2279.282183mNCRMahamaya Nagar(05722-242803), Uttar Pradesh
54/==/ALJNAligarh Junction (4)O  18:55+3:0919:00+3:095m22309.349192mNCRAligarh, Uttar Pradesh
55/==/KRJKhurja Junction (4)XO  19:53+1:1519:58+1:165m--2352.835199mNCRBulandshahr, Uttar Pradesh
56/==/GZBGhaziabad Junction (6)X  21:45+2:3521:47+2:352m32415.548217mNRGhaziabad, Uttar Pradesh
57/==/DSAShahdara Junction (4)  22:04+3:5622:05+3:561m--2429.111212mNRCircular Rd, Delhi NCT
58/==/DLIOld Delhi Junction (16)•  22:40+3:08-112435.4-219mNRNear Chandni Chowk Metro Station, Delhi NCT
Scroll to Top
Scroll to Bottom